Weather History for KUIL - December, 2012

Change the Weather History Date:

Monday, December 3, 2012

  Actual Average Record
Temperature  
Mean Temperature 46 °F 41 °F  
Max Temperature 51 °F 47 °F 63 °F (1988)
Min Temperature 41 °F 35 °F 22 °F (1994)
Degree Days  
Heating Degree Days 19 24  
Month to date heating degree days 72  
Since 1 July heating degree days 1786  
Cooling Degree Days 0 0  
Month to date cooling degree days 0  
Year to date cooling degree days 19  
Moisture  
Dew Point 46 °F    
Average Humidity 93    
Maximum Humidity 100    
Minimum Humidity 86    
Precipitation  
Precipitation 1.38 in 0.48 in 5.63 in (1990)
Month to date precipitation 1.44  
Year to date precipitation 87.99  
Sea Level Pressure  
Sea Level Pressure 29.78 in    
Wind  
Wind Speed 8 mph (South)    
Max Wind Speed 24 mph    
Max Gust Speed 33 mph    
Visibility 3 miles    
Events Rain    
T = Trace of Precipitation, MM = Missing Value Source: NWS Daily Summary

Daily Weather History Graph

Daily Weather History Graph

Search for Another Location

Airport or City:

Trip Planner

Search our weather history database for the weather conditions in past years. The results will help you decide how hot, cold, wet, or windy it might be!

Date:

Astronomy

Dec. 03, 2012 Rise Set
Actual Time 7:49 AM PST 4:26 PM PST
Civil Twilight 7:14 AM PST 5:02 PM PST
Nautical Twilight 6:35 AM PST 5:41 PM PST
Astronomical Twilight 5:57 AM PST 6:18 PM PST
Moon 9:32 PM PST (12/3) 11:04 AM PST (12/3)
Length of Visible Light 9h 47m
Length of Day
8h 36m
Waning Gibbous, 77% of the Moon is Illuminated
Dec 3
Waning Gibbous
Dec 6
Last Quarter
Dec 13
New
Dec 19
First Quarter
Dec 28
Full

Hourly Weather History & Observations

Time (PST) Temp. Windchill Dew Point Humidity Pressure Visibility Wind Dir Wind Speed Gust Speed Precip Events Conditions
12:11 AM 48.2 °F - 46.4 °F 93% 29.68 in 4.0 mi South 16.1 mph 27.6 mph 0.00 in Rain Light Rain
12:20 AM 48.2 °F - 44.6 °F 87% 29.69 in 4.0 mi SSW 12.7 mph 26.5 mph 0.01 in Rain Light Rain
12:35 AM 48.2 °F - 44.6 °F 87% 29.69 in 5.0 mi SSW 15.0 mph 25.3 mph 0.01 in   Overcast
12:53 AM 48.0 °F - 44.1 °F 86% 29.70 in 4.0 mi SSW 19.6 mph 28.8 mph 0.01 in Rain Light Rain
1:01 AM 46.4 °F 39.5 °F 44.6 °F 93% 29.72 in 1.8 mi SW 17.3 mph 28.8 mph 0.02 in Rain Rain
1:15 AM 44.6 °F 39.2 °F 42.8 °F 93% 29.71 in 2.5 mi SSW 10.4 mph 21.9 mph 0.06 in Rain Rain
1:26 AM 46.4 °F 40.4 °F 42.8 °F 87% 29.72 in 4.0 mi SW 13.8 mph 20.7 mph 0.07 in Rain Light Rain
1:34 AM 44.6 °F 36.6 °F 42.8 °F 93% 29.73 in 1.8 mi SW 19.6 mph 29.9 mph 0.09 in Rain Rain
1:44 AM 46.4 °F 41.1 °F 42.8 °F 87% 29.72 in 3.0 mi SW 11.5 mph 26.5 mph 0.11 in Rain Light Rain
1:53 AM 45.0 °F 40.1 °F 43.0 °F 93% 29.74 in 5.0 mi SSW 9.2 mph - 0.11 in Rain Light Rain
2:19 AM 46.4 °F 40.4 °F 44.6 °F 93% 29.74 in 4.0 mi SSW 13.8 mph 21.9 mph 0.00 in   Overcast
2:28 AM 46.4 °F 38.5 °F 44.6 °F 93% 29.76 in 2.5 mi WSW 21.9 mph 29.9 mph 0.00 in Rain Light Rain
2:30 AM 44.6 °F 36.4 °F 42.8 °F 93% 29.77 in 1.8 mi West 20.7 mph 29.9 mph 0.01 in Rain Light Rain
2:32 AM 44.6 °F 36.1 °F 41.0 °F 87% 29.76 in 1.2 mi West 21.9 mph 29.9 mph N/A Rain Heavy Rain
2:48 AM 44.6 °F 35.9 °F 41.0 °F 87% 29.76 in 0.8 mi WSW 23.0 mph 28.8 mph 0.19 in Rain Heavy Rain
2:53 AM 43.0 °F 35.4 °F 41.0 °F 93% 29.78 in 0.8 mi SW 16.1 mph 28.8 mph 0.29 in Rain Heavy Rain
3:00 AM 44.6 °F 38.8 °F 42.8 °F 93% 29.78 in 1.5 mi SW 11.5 mph 25.3 mph 0.02 in Rain Light Rain
3:07 AM 44.6 °F 39.2 °F 42.8 °F 93% 29.78 in 2.0 mi SW 10.4 mph 19.6 mph 0.03 in Rain Light Rain
3:16 AM 44.6 °F 39.7 °F 42.8 °F 93% 29.78 in 4.0 mi SW 9.2 mph - 0.03 in Rain Light Rain
3:53 AM 45.0 °F 40.6 °F 42.1 °F 90% 29.80 in 5.0 mi SW 8.1 mph - 0.03 in   Mostly Cloudy
4:53 AM 45.0 °F 43.5 °F 43.0 °F 93% 29.82 in 5.0 mi SSW 3.5 mph - N/A   Overcast
5:31 AM 44.6 °F - 42.8 °F 93% 29.83 in 5.0 mi Calm Calm - N/A   Overcast
5:53 AM 45.0 °F 43.5 °F 43.0 °F 93% 29.84 in 5.0 mi SW 3.5 mph - N/A   Overcast
6:53 AM 42.8 °F 41.1 °F 42.8 °F 100% 29.86 in 5.0 mi ESE 3.5 mph - N/A   Mostly Cloudy
7:10 AM 42.8 °F 40.1 °F 42.8 °F 100% 29.87 in 1.8 mi South 4.6 mph - 0.01 in Rain Light Rain
7:19 AM 44.6 °F 42.2 °F 42.8 °F 93% 29.88 in 2.5 mi South 4.6 mph - 0.02 in Rain Light Rain
7:35 AM 44.6 °F 42.2 °F 42.8 °F 93% 29.88 in 3.0 mi South 4.6 mph - 0.03 in Rain Light Rain
7:45 AM 44.6 °F 42.2 °F 42.8 °F 93% 29.88 in 2.5 mi SE 4.6 mph - 0.04 in Rain Light Rain
7:50 AM 44.6 °F 42.2 °F 42.8 °F 93% 29.88 in 3.0 mi ESE 4.6 mph - 0.04 in Rain Light Rain
7:53 AM 44.1 °F - 43.0 °F 96% 29.89 in 3.0 mi Calm Calm - 0.04 in Rain Light Rain
8:35 AM 44.6 °F 42.2 °F 42.8 °F 93% 29.89 in 4.0 mi SSE 4.6 mph - 0.00 in   Scattered Clouds
8:53 AM 44.1 °F 42.5 °F 43.0 °F 96% 29.89 in 4.0 mi SE 3.5 mph - 0.00 in   Clear
9:53 AM 46.0 °F 44.8 °F 44.1 °F 93% 29.91 in 4.0 mi SE 3.5 mph - N/A   Partly Cloudy
10:53 AM 46.9 °F - 45.0 °F 93% 29.92 in 3.0 mi SSE 6.9 mph - 0.00 in Rain Light Rain
10:58 AM 48.2 °F - 44.6 °F 87% 29.92 in 1.8 mi SE 4.6 mph - 0.01 in Rain Light Rain
11:07 AM 48.2 °F - 44.6 °F 87% 29.91 in 3.0 mi ESE 5.8 mph - 0.01 in Rain Light Rain
11:15 AM 48.2 °F - 44.6 °F 87% 29.92 in 1.8 mi SSE 5.8 mph - 0.01 in Rain Light Rain
11:26 AM 46.4 °F 42.9 °F 44.6 °F 93% 29.91 in 3.0 mi SSE 6.9 mph - 0.02 in Rain Light Rain
11:53 AM 48.0 °F - 46.0 °F 93% 29.91 in 4.0 mi SE 9.2 mph - 0.02 in   Overcast
12:22 PM 48.2 °F - 44.6 °F 87% 29.90 in 4.0 mi SSE 8.1 mph 16.1 mph 0.00 in   Overcast
12:42 PM 48.2 °F - 46.4 °F 93% 29.90 in 2.0 mi SE 9.2 mph - 0.00 in Rain Light Rain
12:49 PM 48.2 °F - 46.4 °F 93% 29.90 in 1.5 mi SE 6.9 mph - 0.01 in Rain Light Rain
12:53 PM 48.0 °F - 46.0 °F 93% 29.90 in 1.5 mi SE 6.9 mph - 0.01 in Rain Light Rain
12:59 PM 48.2 °F - 46.4 °F 93% 29.89 in 3.0 mi SE 9.2 mph - 0.00 in Rain Light Rain
1:13 PM 48.2 °F - 46.4 °F 93% 29.89 in 4.0 mi SE 8.1 mph - 0.00 in   Overcast
1:28 PM 48.2 °F - 46.4 °F 93% 29.88 in 2.5 mi SE 6.9 mph 16.1 mph 0.00 in Rain Light Rain
1:37 PM 48.2 °F - 46.4 °F 93% 29.88 in 5.0 mi SSE 8.1 mph - 0.00 in   Overcast
1:47 PM 48.2 °F - 46.4 °F 93% 29.88 in 2.0 mi SE 11.5 mph 16.1 mph 0.00 in Rain Light Rain
1:48 PM 48.2 °F - 46.4 °F 93% 29.88 in 1.8 mi SE 11.5 mph 16.1 mph 0.00 in Rain Light Rain
1:53 PM 48.0 °F - 46.0 °F 93% 29.88 in 2.5 mi SE 9.2 mph 16.1 mph 0.00 in Rain Light Rain
2:07 PM 48.2 °F - 46.4 °F 93% 29.87 in 1.2 mi SSE 6.9 mph 17.3 mph 0.01 in Rain Light Rain
2:17 PM 48.2 °F - 46.4 °F 93% 29.87 in 2.0 mi SE 8.1 mph - 0.02 in Rain Light Rain
2:32 PM 48.2 °F - 46.4 °F 93% 29.86 in 1.2 mi SE 8.1 mph - 0.02 in Rain Light Rain
2:42 PM 48.2 °F - 46.4 °F 93% 29.85 in 2.0 mi SE 5.8 mph - 0.03 in Rain Light Rain
2:50 PM 48.2 °F - 46.4 °F 93% 29.85 in 1.2 mi SE 8.1 mph - 0.03 in Rain Light Rain
2:53 PM 48.0 °F - 46.0 °F 93% 29.86 in 0.8 mi SE 8.1 mph - 0.03 in Rain Light Rain
3:06 PM 48.2 °F - 46.4 °F 93% 29.84 in 1.0 mi SE 5.8 mph - 0.03 in Rain Light Rain
3:11 PM 48.2 °F - 46.4 °F 93% 29.84 in 2.5 mi SSE 6.9 mph - 0.03 in Rain Light Rain
3:19 PM 48.2 °F - 46.4 °F 93% 29.84 in 5.0 mi Variable 4.6 mph - 0.03 in   Overcast
3:26 PM 48.2 °F - 46.4 °F 93% 29.84 in 3.0 mi SSE 5.8 mph - 0.03 in   Overcast
3:31 PM 48.2 °F - 46.4 °F 93% 29.84 in 1.8 mi SSE 8.1 mph - 0.03 in Rain Light Rain
3:37 PM 48.2 °F - 46.4 °F 93% 29.84 in 0.8 mi SE 6.9 mph - 0.04 in Rain Rain
3:44 PM 48.2 °F - 46.4 °F 93% 29.83 in 1.0 mi SSE 9.2 mph - 0.06 in Rain Light Rain
3:47 PM 48.2 °F - 46.4 °F 93% 29.83 in 1.8 mi Variable 5.8 mph - 0.06 in Rain Light Rain
3:49 PM 48.2 °F - 46.4 °F 93% 29.83 in 3.0 mi SSE 8.1 mph - 0.06 in Rain Light Rain
3:53 PM 48.0 °F - 46.9 °F 96% 29.83 in 4.0 mi Variable 4.6 mph - 0.06 in Rain Light Rain
4:15 PM 48.2 °F - 46.4 °F 93% 29.81 in 5.0 mi SE 9.2 mph - 0.00 in   Overcast
4:53 PM 48.0 °F - 46.0 °F 93% 29.81 in 7.0 mi SSE 6.9 mph - 0.00 in   Overcast
5:34 PM 48.2 °F - 46.4 °F 93% 29.78 in 6.0 mi Variable 4.6 mph - 0.00 in Rain Light Rain
5:44 PM 50.0 °F - 48.2 °F 94% 29.78 in 3.0 mi South 9.2 mph - 0.00 in Rain Light Rain
5:53 PM 50.0 °F - 48.9 °F 96% 29.78 in 2.0 mi South 11.5 mph 23.0 mph 0.02 in Rain Rain
5:59 PM 50.0 °F - 48.2 °F 94% 29.77 in 1.2 mi Variable 5.8 mph 23.0 mph 0.02 in Rain Rain
6:09 PM 50.0 °F - 50.0 °F 100% 29.76 in 2.0 mi South 10.4 mph 26.5 mph 0.07 in Rain Light Rain
6:27 PM 51.8 °F - 50.0 °F 94% 29.75 in 4.0 mi South 10.4 mph 24.2 mph 0.08 in Rain Light Rain
6:36 PM 51.8 °F - 50.0 °F 94% 29.75 in 1.8 mi South 10.4 mph 21.9 mph 0.09 in Rain Light Rain
6:45 PM 51.8 °F - 50.0 °F 94% 29.75 in 3.0 mi South 11.5 mph 24.2 mph 0.10 in Rain Light Rain
6:53 PM 51.1 °F - 50.0 °F 96% 29.74 in 4.0 mi SSE 11.5 mph 20.7 mph 0.10 in   Overcast
7:13 PM 51.8 °F - 50.0 °F 94% 29.73 in 4.0 mi South 8.1 mph 28.8 mph 0.00 in Rain Light Rain
7:19 PM 51.8 °F - 50.0 °F 94% 29.73 in 2.5 mi South 11.5 mph 20.7 mph 0.00 in Rain Light Rain
7:29 PM 51.8 °F - 48.2 °F 88% 29.72 in 1.8 mi South 16.1 mph 29.9 mph 0.02 in Rain Light Rain
7:34 PM 51.8 °F - 48.2 °F 88% 29.72 in 2.0 mi South 13.8 mph 26.5 mph 0.03 in Rain Light Rain
7:44 PM 51.8 °F - 50.0 °F 94% 29.71 in 2.0 mi South 8.1 mph 26.5 mph 0.05 in Rain Light Rain
7:51 PM 51.8 °F - 50.0 °F 94% 29.70 in 1.8 mi South 12.7 mph 21.9 mph 0.07 in Rain Light Rain
7:53 PM 51.1 °F - 50.0 °F 96% 29.70 in 2.0 mi South 10.4 mph 23.0 mph 0.07 in Rain Light Rain
8:26 PM 51.8 °F - 50.0 °F 94% 29.67 in 3.0 mi South 15.0 mph 25.3 mph 0.04 in Rain Light Rain
8:29 PM 51.8 °F - 50.0 °F 94% 29.67 in 2.5 mi South 13.8 mph 25.3 mph 0.04 in Rain Light Rain
8:36 PM 51.8 °F - 50.0 °F 94% 29.67 in 1.2 mi South 10.4 mph 24.2 mph 0.06 in Rain Light Rain
8:41 PM 50.0 °F - 48.2 °F 94% 29.66 in 2.0 mi South 15.0 mph 27.6 mph 0.07 in Rain Light Rain
8:53 PM 50.0 °F - 48.9 °F 96% 29.65 in 2.0 mi South 10.4 mph 27.6 mph 0.09 in Rain Rain
9:00 PM 50.0 °F - 48.2 °F 94% 29.64 in 1.2 mi South 11.5 mph 27.6 mph 0.03 in Rain Rain
9:13 PM 50.0 °F - 48.2 °F 94% 29.63 in 0.8 mi Variable 4.6 mph 18.4 mph 0.15 in Rain Heavy Rain
9:17 PM 50.0 °F - 48.2 °F 94% 29.62 in 1.0 mi SSE 16.1 mph 26.5 mph 0.19 in Rain Heavy Rain
9:20 PM 50.0 °F - 48.2 °F 94% 29.62 in 1.2 mi SSE 12.7 mph 26.5 mph 0.20 in Rain Rain
9:22 PM 50.0 °F - 48.2 °F 94% 29.62 in 1.5 mi South 11.5 mph 26.5 mph 0.21 in Rain Light Rain
9:24 PM 50.0 °F - 48.2 °F 94% 29.62 in 2.0 mi South 12.7 mph 26.5 mph 0.21 in Rain Light Rain
9:33 PM 50.0 °F - 48.2 °F 94% 29.61 in 1.8 mi South 9.2 mph 28.8 mph 0.23 in Rain Rain
9:39 PM 50.0 °F - 48.2 °F 94% 29.60 in 2.0 mi Variable 6.9 mph 21.9 mph 0.25 in Rain Light Rain
9:53 PM 50.0 °F - 48.0 °F 93% 29.60 in 2.0 mi SSE 15.0 mph 26.5 mph 0.27 in Rain Rain
9:58 PM 50.0 °F - 48.2 °F 94% 29.59 in 1.8 mi SSE 13.8 mph 26.5 mph 0.01 in Rain Rain
10:04 PM 50.0 °F - 48.2 °F 94% 29.59 in 2.0 mi South 17.3 mph 28.8 mph 0.03 in Rain Light Rain
10:17 PM 50.0 °F - 48.2 °F 94% 29.58 in 2.5 mi South 13.8 mph 25.3 mph 0.05 in Rain Light Rain
10:36 PM 50.0 °F - 46.4 °F 87% 29.56 in 2.5 mi SSE 12.7 mph 26.5 mph 0.08 in Rain Light Rain
10:53 PM 48.9 °F - 46.9 °F 93% 29.55 in 2.5 mi SSE 15.0 mph 26.5 mph 0.10 in Rain Light Rain
11:53 PM 48.0 °F - 45.0 °F 89% 29.50 in 2.5 mi SSE 11.5 mph 33.4 mph 0.12 in Rain Light Rain